Regional Weather Roundup
Issued by NWS

Home | Current Version | Previous Version | Graphics & Text | Print | Product List | Glossary On
Versions: 1 2 3 4 5 6 7 8 9 10 11 12 13 14 15 16 17 18 19 20 21 22 23 24 25 26 27 28 29 30 31 32 33 34 35 36 37 38 39 40 41 42 43 44 45 46 47 48 49 50
000
ASUS43 KBIS 290610
RWRND

NORTH DAKOTA REGIONAL WEATHER ROUNDUP
NATIONAL WEATHER SERVICE BISMARCK ND
100 AM CDT SUN MAR 29 2015

NOTE: "FAIR" INDICATES FEW OR NO CLOUDS BELOW 12,000 FEET WITH NO
SIGNIFICANT WEATHER AND/OR OBSTRUCTIONS TO VISIBILITY.


NDZ001>003-009>011-017-290700-
NORTHWEST NORTH DAKOTA

CITY           SKY/WX    TMP DP  RH WIND       PRES   REMARKS
WILLISTON      LGT RAIN  41  37  86 N32G43    29.73R
6HR MIN TEMP:  42; 6HR MAX TEMP:  60; 6HR PCP:  0.10;

MINOT          CLOUDY    49  46  90 W21G29    29.53S
MINOT AFB      DRIZZLE   48  48 100 NW22G29   29.54R
$$

NDZ018>021-031>035-040>046-290700-
SOUTHWEST NORTH DAKOTA

CITY           SKY/WX    TMP DP  RH WIND       PRES   REMARKS
BISMARCK       CLOUDY    50  41  71 W17       29.62S
6HR MIN TEMP:  50; 6HR MAX TEMP:  64; 6HR PCP:  0.12;

DICKINSON      PTCLDY    46  35  65 W26G36    29.65F
GARRISON         N/A     48  41  76 W23G32    29.57F
6HR MIN TEMP:  48; 6HR MAX TEMP:  64; 6HR PCP:  0.12;

HETTINGER ARPT PTCLDY    45  32  60 W22G33    29.73F
$$

NDZ004>008-012>016-024-026-027-054-290700-
NORTHEAST NORTH DAKOTA

CITY           SKY/WX    TMP DP  RH WIND       PRES   REMARKS
GRAND FORKS    RAIN      41  36  82 S25G37    29.46F
DEVILS LAKE    CLOUDY    48  45  87 W18G26    29.43S
$$

NDZ022-023-025-028>030-036>039-047>053-290700-
SOUTHEAST NORTH DAKOTA

CITY           SKY/WX    TMP DP  RH WIND       PRES   REMARKS
FARGO          CLOUDY    44  30  57 S16       29.61F
6HR MIN TEMP:  44; 6HR MAX TEMP:  52; 6HR PCP: TRACE;

JAMESTOWN      RAIN      45  39  79 S14       29.53F
$$



USA.gov is the U.S. government's official web portal to all federal, state and local government web resources and services.